STOCKHOLM/BROMMA current weather conditions

sailwx.info

Wind from 240 at 5 knots

Air temperature 1.0° C
Visibility: greater than 3.2 NM
Dewpoint -0.0° C
Present weather: Mist.

Last reported at 2017-Jan-18 02:20 UTC.
Time now 2017-Jan-18 04:13 UTC

Location: N 59°21' E 017°57'.
View on Google Maps.

See reports from other nearby stations

  
Tides and Currents Weather Stations Pressure Air Temp Water Temp Dewpoint Dewpoint Depression Visibility Wind Speed Wind Dir Waves Ship Positions
date/time (UTC)wind fromknots sea level pressurealtimeterstation pressurevisibilityair tempwater tempwave heightnotes
2017-Jan-18 03:20 240 6 2.2 1.0 Mist.
2017-Jan-18 02:50 240 6 2.7 1.0 Mist.
2017-Jan-18 02:20 240 5 3.2 1.0 Mist.
2017-Jan-18 01:50 240 5 5.4 1.0
2017-Jan-18 01:20 240 5 5.4-0.0
2017-Jan-18 00:50 220 5 5.4-0.0
2017-Jan-18 00:20 230 5 5.4-0.0
2017-Jan-17 23:50 230 6 5.4-0.0
2017-Jan-17 23:20 230 5 5.4-0.0
2017-Jan-17 22:50 230 5 5.4-0.0
2017-Jan-17 22:20 220 5 5.4-0.0
2017-Jan-17 21:50 220 5 5.4-0.0
2017-Jan-17 21:20 220 5 5.4-0.0
2017-Jan-17 20:50 210 6 5.4-0.0
2017-Jan-17 20:20 220 6 5.4-0.0
2017-Jan-17 19:50 220 6 5.4-0.0
2017-Jan-17 19:20 220 6 5.4-1.0
2017-Jan-17 18:50 220 6 5.4-1.0
2017-Jan-17 18:20 220 6 5.4-1.0
2017-Jan-17 17:50 210 7 5.4-1.0
2017-Jan-17 17:20 220 6 5.4-1.0
2017-Jan-17 16:50 220 6 5.4-1.0
2017-Jan-17 16:20 220 7 5.4-1.0
2017-Jan-17 15:50 200 6 5.4-1.0
2017-Jan-17 15:20 200 6 5.4-1.0
2017-Jan-17 14:50 200 6 5.4-2.0
2017-Jan-17 14:20 210 7 5.4-2.0
2017-Jan-17 13:50 200 7 5.4-2.0
2017-Jan-17 13:20 210 8 5.4-2.0
2017-Jan-17 12:50 190 6 5.4-2.0
2017-Jan-17 12:20 200 6 5.4-2.0
2017-Jan-17 11:50 200 7 5.4-3.0
2017-Jan-17 11:20 210 6 5.4-3.0
2017-Jan-17 10:50 210 6 5.4-3.0
2017-Jan-17 10:20 220 6 5.4-3.0
2017-Jan-17 09:50 210 6 5.4-4.0
2017-Jan-17 09:20 210 5 5.4-4.0
2017-Jan-17 08:50 230 4 3.8-5.0
2017-Jan-17 08:20 220 5 4.3-5.0 Snow grains.
2017-Jan-17 07:50 210 5 5.4-5.0
2017-Jan-17 07:20 5.4-5.0
2017-Jan-17 06:50 230 4 5.4-6.0
2017-Jan-17 06:20 250 4 5.4-6.0
2017-Jan-17 05:50 220 4 5.4-7.0
2017-Jan-17 05:20 5.4-7.0
2017-Jan-17 04:50 210 2 5.4-7.0
2017-Jan-17 04:20 210 2 5.4-7.0
2017-Jan-17 03:50 220 2 5.4-7.0
2017-Jan-17 03:20 230 1 5.4-7.0
2017-Jan-17 02:50 210 0 5.4-7.0
2017-Jan-17 02:20 5.4-7.0
2017-Jan-17 01:50 5.4-6.0
2017-Jan-17 01:20 5.4-6.0
2017-Jan-17 00:50 270 2 5.4-5.0
2017-Jan-17 00:20 270 2 5.4-4.0
2017-Jan-16 23:50 280 4 5.4-3.0
2017-Jan-16 23:20 300 5 5.4-3.0
2017-Jan-16 22:50 290 5 5.4-3.0
2017-Jan-16 22:20 300 4 5.4-3.0
2017-Jan-16 21:50 310 4 5.4-2.0
2017-Jan-16 21:20 310 2 5.4-2.0
2017-Jan-16 20:50 310 4 5.4-1.0
2017-Jan-16 20:20 310 6 5.4-1.0
2017-Jan-16 19:50 310 6 5.4-1.0
2017-Jan-16 19:20 310 6 5.4-1.0
2017-Jan-16 18:50 310 5 5.4-1.0
2017-Jan-16 18:20 310 5 5.4-1.0
2017-Jan-16 17:50 320 6 5.4-1.0
2017-Jan-16 17:20 320 6 5.4-1.0
2017-Jan-16 16:50 320 6 5.4-1.0
2017-Jan-16 16:20 310 5 5.4-1.0
2017-Jan-16 15:50 320 6 5.4-1.0
2017-Jan-16 15:20 320 5 5.4-1.0
2017-Jan-16 14:50 320 6 5.4-1.0
2017-Jan-16 14:20 330 6 5.4-1.0
2017-Jan-16 13:50 340 6 5.4-1.0
2017-Jan-16 13:20 340 6 5.4-1.0
2017-Jan-16 12:50 340 6 5.4-1.0
2017-Jan-16 12:20 340 8 4.3-0.0
2017-Jan-16 11:50 330 6 5.4-1.0
2017-Jan-16 11:20 350 6 5.4-1.0
2017-Jan-16 10:50 360 8 5.4-1.0
2017-Jan-16 10:20 340 6 5.4-1.0
2017-Jan-16 09:50 330 5 5.4-2.0 Light freezing drizzle.
2017-Jan-16 09:20 320 5 5.4-3.0
2017-Jan-16 08:50 5.4-3.0
2017-Jan-16 08:20 300 4 2.7-4.0 Light snow.
2017-Jan-16 07:50 300 2 5.4-4.0
2017-Jan-16 07:20 290 4 5.4-4.0 Light snow.
2017-Jan-16 06:50 250 2 5.4-4.0
2017-Jan-16 06:20 290 2 5.4-5.0
2017-Jan-16 05:50 310 2 5.4-5.0 Light snow.
2017-Jan-16 05:20 320 5 5.4-4.0
2017-Jan-16 04:50 310 6 5.4-4.0
2017-Jan-16 04:20 290 5 5.4-4.0